Russellville, AR

10:10 AM CST on November 20, 2017 (GMT -0600)
Russellville Regional

Weather History for KRUE - March, 2014

Change the Weather History Date:

Monday, March 10, 2014

  Actual Average (KHOT) Record (KHOT)
Temperature  
Mean Temperature 53 °F -  
Max Temperature 75 °F 63 °F 84 °F (1955)
Min Temperature 33 °F 41 °F 23 °F (1998)
Degree Days  
Heating Degree Days 12    
Growing Degree Days 3 (Base 50)    
Moisture  
Dew Point 39 °F    
Average Humidity 72    
Maximum Humidity 97    
Minimum Humidity 27    
Precipitation  
Precipitation 0.00 in - - ()
Sea Level Pressure  
Sea Level Pressure 30.01 in    
Wind  
Wind Speed 1 mph (SW)    
Max Wind Speed 5 mph    
Max Gust Speed -    
Visibility 5 miles    
Events Fog    
Averages and records for this station are not official NWS values.
T = Trace of Precipitation, MM = Missing Value Source: NWS Daily Summary

Daily Weather History Graph

Daily Weather History Graph

Search for Another Location

Airport or City:

Trip Planner

Search our weather history database for the weather conditions in past years. The results will help you decide how hot, cold, wet, or windy it might be!

Date:

Astronomy

Mar. 10, 2014 Rise Set
Actual Time 7:29 AM CDT 7:15 PM CDT
Civil Twilight 7:04 AM CDT 7:41 PM CDT
Nautical Twilight 6:35 AM CDT 8:10 PM CDT
Astronomical Twilight 6:05 AM CDT 8:40 PM CDT
Moon 2:08 PM CDT (3/10) 3:33 AM CDT (3/10)
Length of Visible Light 12h 36m
Length of Day
11h 45m
Waxing Gibbous, 70% of the Moon is Illuminated
Mar 10
Waxing Gibbous
Mar 16
Full
Mar 23
Last Quarter
Mar 30
New
Apr 7
First Quarter

Hourly Weather History & Observations

Time (CDT) Temp. Windchill Dew Point Humidity Pressure Visibility Wind Dir Wind Speed Gust Speed Precip Events Conditions
12:53 AM 46.0 °F - 43.0 °F 89% 30.14 in 4.0 mi Calm Calm - N/A   Overcast
1:18 AM 46.4 °F - 42.8 °F 87% 30.15 in 5.0 mi Calm Calm - N/A   Overcast
1:53 AM 45.0 °F - 41.0 °F 86% 30.13 in 4.0 mi Calm Calm - N/A   Overcast
2:26 AM 42.8 °F - 39.2 °F 87% 30.13 in 3.0 mi Calm Calm - N/A   Scattered Clouds
2:41 AM 39.2 °F - 37.4 °F 93% 30.13 in 2.5 mi Calm Calm - N/A   Clear
2:53 AM 39.9 °F - 37.9 °F 93% 30.12 in 2.5 mi Calm Calm - N/A   Clear
3:38 AM 37.4 °F - 35.6 °F 93% 30.11 in 1.8 mi Calm Calm - N/A   Clear
3:53 AM 37.0 °F - 35.1 °F 93% 30.10 in 1.8 mi Calm Calm - N/A   Clear
4:53 AM 35.1 °F - 33.1 °F 92% 30.08 in 1.8 mi Calm Calm - N/A   Clear
5:00 AM 35.6 °F - 33.8 °F 93% 30.08 in 2.0 mi Calm Calm - N/A   Partly Cloudy
5:21 AM 35.6 °F - 32.0 °F 87% 30.08 in 1.5 mi Calm Calm - N/A   Partly Cloudy
5:42 AM 33.8 °F - 32.0 °F 93% 30.08 in 0.8 mi Calm Calm - N/A   Mist
5:53 AM 33.1 °F - 32.0 °F 96% 30.07 in 0.8 mi Calm Calm - N/A   Mist
6:53 AM 36.0 °F - 35.1 °F 97% 30.08 in 0.2 mi Calm Calm - N/A Fog Fog
7:53 AM 37.0 °F - 36.0 °F 96% 30.09 in 0.2 mi Calm Calm - N/A Fog Fog
8:53 AM 39.9 °F 37.8 °F 39.0 °F 97% 30.09 in 0.2 mi NW 3.5 mph - N/A Fog Fog
9:53 AM 42.1 °F - 41.0 °F 96% 30.08 in 0.2 mi Calm Calm - N/A Fog Fog
10:31 AM 44.6 °F - 42.8 °F 93% 30.08 in 1.5 mi Calm Calm - N/A   Overcast
10:39 AM 44.6 °F - 42.8 °F 93% 30.08 in 2.5 mi Calm Calm - N/A   Overcast
10:46 AM 46.4 °F - 42.8 °F 87% 30.08 in 4.0 mi Calm Calm - N/A   Mostly Cloudy
10:53 AM 46.0 °F - 44.1 °F 93% 30.07 in 4.0 mi Calm Calm - N/A   Scattered Clouds
11:53 AM 54.0 °F - 44.1 °F 69% 30.05 in 8.0 mi Calm Calm - N/A   Clear
12:53 PM 61.0 °F - 44.1 °F 54% 30.01 in 10.0 mi Calm Calm - N/A   Clear
1:53 PM 66.9 °F - 43.0 °F 42% 29.97 in 10.0 mi NW 4.6 mph - N/A   Clear
2:53 PM 70.0 °F - 43.0 °F 38% 29.92 in 10.0 mi Variable 3.5 mph - N/A   Clear
3:53 PM 73.0 °F - 42.1 °F 33% 29.88 in 10.0 mi Variable 4.6 mph - N/A   Clear
4:53 PM 73.9 °F - 39.9 °F 29% 29.86 in 10.0 mi Variable 4.6 mph - N/A   Clear
5:53 PM 73.9 °F - 39.0 °F 28% 29.83 in 4.0 mi Calm Calm - N/A   Haze
6:01 PM 73.4 °F - 37.4 °F 27% 29.84 in 2.0 mi Variable 3.5 mph - N/A   Haze
6:09 PM 73.4 °F - 39.2 °F 29% 29.84 in 7.0 mi SSW 4.6 mph - N/A   Clear
6:53 PM 69.1 °F - 41.0 °F 36% 29.83 in 10.0 mi SSW 3.5 mph - N/A   Clear
7:53 PM 60.1 °F - 41.0 °F 49% 29.84 in 10.0 mi Variable 4.6 mph - N/A   Clear
8:53 PM 62.1 °F - 42.1 °F 48% 29.85 in 10.0 mi South 4.6 mph - N/A   Clear
9:53 PM 60.1 °F - 41.0 °F 49% 29.86 in 10.0 mi South 4.6 mph - N/A   Clear
10:53 PM 55.9 °F - 41.0 °F 57% 29.85 in 10.0 mi Calm Calm - N/A   Clear
11:53 PM 52.0 °F - 41.0 °F 66% 29.83 in 10.0 mi Calm Calm - N/A   Clear